Vertical_Velocity
-1 1 -1 -5 -1 2 -3 -4 -3 -3 -6 -6 9 0 0 -1 -3 -5 -2 -1 0 -5 3 1 -1 -1 -1 0 -1 -4 -1 -1 -2 -1 -1 1 1 0 -0 2 2 4 0 5 2 3 1 -2 2
0 -1 -1 -6 1 -2 -10 13 0 -3 -9 3 -4 -1 1 2 -5 -5 11 -4 1 -4 4 -1 -2 -1 -2 -1 -0 0 2 5 1 -3 -3 -1 2 3 0 0 4 -1 2 5 2 4 -2 -0 -0
2 -1 -2 -2 -2 6 -7 0 -2 -10 0 4 -1 -2 2 -1 1 -3 -5 1 1 -6 10 0 -3 -3 -1 -0 -1 3 1 1 2 -0 2 3 1 2 4 4 5 1 1 8 2 -2 -1 -1 3
-1 -1 1 -2 -3 -3 1 7 -0 -4 -3 -4 4 3 -6 5 -0 -1 -1 -2 1 -2 1 -1 -2 -1 2 -2 2 -1 -3 -3 1 1 4 3 1 4 0 6 3 0 -1 -1 2 -1 2 -2 -1
1 -4 2 -2 2 0 4 -4 -1 -1 -3 -1 -4 2 -3 11 -1 -2 -7 1 3 -1 -6 -3 1 2 0 -2 -2 -5 3 6 0 -2 -5 2 -1 -2 0 10 5 1 -3 0 -0 0 -9 1 4
-1 -6 0 -1 -4 7 21 -8 1 -4 3 -0 -1 -1 -4 -8 -1 4 1 -3 0 0 -3 1 1 -2 2 3 0 10 26 60 -2 7 -2 -1 -1 9 0 3 -2 1 -1 0 -1 -3 3 2 -1
2 -3 3 -2 -1 -3 18 -10 3 -1 -0 -2 4 -4 -1 -0 -1 -2 4 2 -4 -1 -2 1 5 -4 0 -0 -8 18 96 99 69 9 6 -1 -5 -1 1 -0 1 1 -4 -4 -3 -2 3 1 -3
3 -5 -0 5 -0 -3 15 -12 8 -1 2 -0 0 -3 -7 -2 -6 -1 -1 -3 3 -2 -2 -2 1 1 1 -1 -4 59 2 13 109 25 4 1 0 -0 10 -1 1 4 2 -3 -0 1 -2 1 2
3 -6 3 2 4 3 -2 -4 -0 -2 -1 1 -2 -2 -1 -1 -3 -3 -1 3 1 1 -5 -0 1 0 -4 9 -5 10 3 -1 179 40 -2 -0 -2 -9 -1 5 1 2 -2 -3 -3 0 -1 4 -7
-4 -2 8 7 -2 7 19 -5 3 1 -6 2 -1 -6 2 -6 -1 -4 -6 -0 -0 -2 0 -2 3 4 7 6 7 10 -6 -4 184 13 -5 -4 -3 -7 2 21 -1 3 -3 -1 -5 -1 -1 2 -2
11 -2 9 2 6 -3 -1 -1 -2 -1 1 1 0 1 -3 1 -1 -2 -1 -3 -1 2 -3 -2 1 1 3 -6 1 -5 -4 7 72 -1 -2 9 7 2 13 -10 3 -1 -2 0 -4 0 -1 -0 -1
-12 8 5 3 6 0 2 2 -1 -2 -1 -0 3 -0 -3 -0 -1 -2 1 -3 3 -2 -1 -4 -0 3 4 -6 -4 -5 -12 0 12 16 -6 -5 4 11 5 0 4 1 1 -2 -4 -1 0 -2 -1
-6 7 2 3 1 3 0 2 -1 -1 -1 -3 4 -1 -1 -3 -3 -2 -4 -1 2 -1 1 -7 -2 -3 6 -4 1 -10 -8 3 2 0 -4 2 -1 -3 2 11 7 -1 -5 -4 -1 -3 0 -0 3
6 5 3 0 2 1 -0 3 -2 2 -2 -1 3 -3 -1 1 -2 -4 -3 1 -1 2 1 1 -5 -3 -0 9 -4 -3 3 -2 -2 2 -4 -3 -0 -3 -6 0 2 -0 -3 -4 -1 -0 1 -1 1
1 -3 -3 -2 3 2 2 -1 0 -0 -2 0 1 -1 -2 1 -0 -3 -1 -3 -2 -1 -1 2 -5 -4 -1 -0 3 -3 -4 2 4 1 -1 -1 -3 -4 -1 -2 2 7 -2 -3 -1 -1 0 -1 0
-6 -3 -6 10 2 6 -1 8 2 -1 -3 1 -1 -1 -1 0 -1 -1 -3 -2 -1 1 -3 -3 2 -0 -3 -3 -2 -0 0 -4 -3 -0 -4 1 5 -2 -0 2 2 -3 -0 -0 -0 -1 2 -1 0
-1 1 -6 4 2 2 -2 10 2 -0 1 -0 -0 -3 1 -1 -1 -0 -1 -0 -9 -2 0 -3 -1 -1 1 -4 -2 -3 -4 3 -4 -2 -0 2 0 3 3 3 5 -2 1 0 -1 1 -1 0 1
4 4 4 -1 -1 0 1 2 2 -0 -1 -2 2 -2 -3 -1 1 -0 -1 -2 -4 -6 -2 -2 -2 -4 -2 0 -0 -3 0 -2 1 2 2 -4 2 4 0 5 3 5 3 0 -1 4 0 -1 -1
-3 -2 6 21 5 14 -3 3 1 1 -1 -5 1 1 -1 -4 -1 3 -1 -2 2 -5 -2 -2 -1 -4 -2 -8 -2 -6 -5 -1 -2 1 -1 -3 2 2 0 -3 7 3 5 2 0 -1 1 0 -0
1 5 -10 10 18 -6 1 0 2 -3 -1 1 -2 -6 4 -3 -2 1 -2 -1 -2 -1 -3 -1 -1 -3 -3 -0 1 -3 -6 -3 1 0 -1 -3 -3 3 4 11 -3 -0 2 -1 3 14 4 1 -1
-1 -2 4 -5 2 5 -2 -2 4 3 -2 0 -1 -0 -3 -3 -2 2 0 -2 -1 0 -3 -2 -1 -4 -4 -3 -2 -1 2 -2 -1 -2 -4 -0 -3 1 0 -3 -3 2 -1 9 9 5 1 -0 -1
0 4 3 0 2 -6 6 -4 -4 3 1 -2 0 -1 1 -1 -3 1 1 -2 -1 0 -2 1 -1 -2 -2 -3 -3 -1 -4 -3 -3 -5 -1 -1 -2 -1 1 1 -1 -2 -1 2 5 2 0 -0 3
10 5 2 4 3 -6 2 -7 6 0 1 -6 -6 1 2 -0 -4 -3 0 -1 -1 -1 -1 -2 2 -0 -1 -1 -2 -0 -3 -5 -3 -2 -1 1 -4 -2 -1 0 -3 -2 -2 0 10 3 -2 -1 1
3 3 3 1 -3 -17 8 -2 4 -2 2 1 5 -2 -7 0 0 -4 3 -0 0 -2 1 -2 -3 1 -2 -0 -1 -2 0 -2 0 -3 -8 -6 -1 -2 -1 1 1 -2 -1 0 1 -0 -1 1 0
6 -3 1 -5 -6 -7 5 -9 5 6 4 -1 -1 -3 -1 -6 1 -2 -1 1 1 1 -2 3 -2 -3 -1 -2 1 -0 -1 -3 -3 -3 -2 -1 -6 -1 -3 -0 -1 1 -1 -1 -2 -1 0 1 1
8 8 -1 -3 -0 -4 0 -7 2 3 10 -10 -5 2 -2 -4 0 -0 -4 0 1 -0 1 -1 3 -1 -1 1 1 -1 -0 2 -1 -0 -1 0 -1 3 1 -2 -2 -1 -4 -4 -1 2 1 -0 1
13 -20 14 19 9 -6 -2 -0 -4 4 -3 4 1 -1 1 -5 -0 3 -2 0 -1 2 -1 -1 3 4 -1 -2 -2 -0 -0 -1 -1 1 2 -1 -1 -2 -2 -1 -4 -1 -1 -1 -1 -0 -1 -2 0
0 31 4 -2 -2 -2 1 10 3 4 4 7 4 -2 6 -2 -9 -3 1 -1 -2 0 2 -0 -1 0 3 1 -2 -2 -2 -1 1 1 1 1 2 -0 1 -2 -0 -0 -2 -2 3 1 -2 -2 1
5 4 0 4 -2 -1 9 12 -14 -9 -2 5 -1 -5 -2 -1 -1 1 -4 -2 2 -1 -0 2 -1 1 4 -0 -0 1 1 -0 0 -2 -1 -2 -1 -1 2 2 0 -1 -2 -0 2 -1 -2 1 -2
1 -2 13 -4 3 -1 -2 25 -11 19 5 5 6 -1 2 2 -1 -0 0 3 -4 2 -1 2 -1 1 -0 2 2 -2 1 2 2 3 -1 -1 -2 -2 -1 -1 0 4 4 1 4 3 1 1 1
Height
5812 5811 5811 5812 5813 5810 5808 5808 5806 5804 5801 5800 5800 5799 5797 5795 5793 5793 5790 5787 5785 5785 5784 5783 5782 5782 5782 5783 5785 5787 5789 5792 5795 5797 5801 5804 5807 5809 5813 5816 5819 5821 5825 5829 5831 5830 5832 5834 5833
5807 5807 5806 5806 5808 5805 5806 5807 5802 5801 5796 5797 5795 5794 5793 5791 5788 5786 5788 5783 5781 5780 5780 5780 5779 5779 5779 5779 5780 5781 5783 5785 5788 5791 5794 5797 5799 5803 5806 5810 5813 5817 5821 5825 5826 5828 5828 5829 5830
5802 5801 5801 5801 5802 5803 5803 5802 5797 5793 5794 5793 5790 5788 5788 5786 5785 5782 5780 5779 5778 5774 5776 5775 5775 5775 5776 5776 5774 5775 5775 5777 5780 5783 5784 5788 5791 5797 5800 5804 5808 5811 5817 5821 5823 5825 5827 5826 5827
5795 5795 5796 5795 5796 5796 5799 5800 5789 5791 5788 5787 5787 5784 5782 5783 5779 5777 5776 5773 5772 5769 5768 5769 5769 5769 5770 5770 5769 5769 5769 5772 5775 5778 5780 5782 5787 5793 5796 5800 5804 5806 5811 5816 5819 5821 5824 5823 5825
5790 5789 5790 5789 5792 5793 5793 5790 5788 5788 5785 5782 5780 5780 5778 5778 5775 5772 5769 5767 5767 5764 5762 5764 5762 5762 5762 5762 5764 5764 5764 5764 5769 5771 5776 5778 5782 5787 5791 5795 5797 5802 5807 5811 5815 5818 5820 5823 5823
5784 5784 5784 5785 5787 5792 5793 5784 5784 5783 5781 5779 5776 5776 5773 5771 5770 5769 5766 5762 5761 5759 5758 5758 5755 5755 5755 5755 5756 5755 5753 5758 5759 5767 5771 5775 5777 5783 5788 5792 5794 5798 5801 5807 5811 5815 5818 5819 5821
5777 5777 5779 5779 5782 5786 5788 5778 5780 5779 5777 5775 5774 5773 5769 5769 5766 5763 5764 5759 5757 5755 5752 5751 5749 5747 5747 5747 5749 5750 5738 5749 5757 5759 5767 5771 5775 5777 5784 5788 5791 5796 5799 5802 5806 5812 5814 5816 5819
5769 5770 5772 5774 5777 5779 5783 5772 5776 5774 5773 5771 5771 5769 5765 5764 5762 5759 5757 5755 5754 5752 5748 5745 5744 5741 5737 5740 5743 5742 5744 5752 5733 5752 5760 5767 5770 5774 5780 5783 5787 5793 5795 5799 5804 5809 5811 5814 5815
5761 5761 5765 5769 5773 5777 5773 5770 5771 5769 5768 5767 5766 5765 5762 5760 5758 5755 5754 5752 5749 5748 5744 5740 5737 5734 5732 5734 5737 5738 5745 5747 5730 5746 5756 5762 5767 5770 5773 5780 5784 5788 5791 5794 5800 5805 5808 5811 5813
5751 5754 5761 5765 5767 5772 5771 5764 5766 5766 5763 5763 5762 5759 5759 5755 5754 5752 5750 5748 5745 5744 5740 5736 5733 5729 5727 5728 5731 5734 5737 5737 5729 5747 5754 5760 5764 5767 5773 5776 5780 5785 5788 5794 5797 5803 5806 5808 5809
5745 5748 5755 5756 5760 5760 5761 5760 5760 5760 5760 5759 5759 5756 5753 5753 5751 5748 5747 5745 5742 5741 5738 5734 5729 5725 5724 5725 5727 5730 5734 5733 5734 5743 5751 5757 5758 5762 5768 5775 5780 5783 5788 5791 5795 5799 5802 5805 5806
5737 5743 5746 5750 5752 5753 5754 5755 5756 5757 5757 5755 5754 5753 5749 5748 5747 5745 5744 5742 5740 5738 5734 5732 5727 5721 5722 5720 5724 5728 5731 5734 5739 5744 5751 5756 5759 5762 5766 5771 5776 5779 5784 5787 5791 5796 5799 5802 5803
5729 5735 5739 5743 5745 5747 5748 5750 5751 5753 5752 5750 5750 5749 5746 5744 5743 5741 5740 5738 5737 5735 5731 5730 5727 5723 5719 5721 5720 5726 5731 5734 5739 5744 5747 5752 5757 5761 5763 5768 5773 5776 5780 5783 5787 5791 5795 5797 5799
5724 5728 5733 5736 5740 5741 5742 5746 5745 5749 5748 5747 5746 5744 5742 5740 5739 5738 5737 5736 5734 5732 5730 5728 5726 5724 5719 5716 5721 5723 5725 5730 5735 5740 5745 5748 5752 5757 5759 5763 5768 5772 5775 5779 5782 5786 5791 5793 5795
5716 5719 5724 5729 5734 5736 5736 5740 5742 5744 5744 5743 5742 5741 5738 5737 5735 5733 5733 5733 5732 5730 5728 5725 5723 5721 5720 5718 5717 5721 5725 5727 5731 5735 5739 5743 5747 5751 5756 5758 5762 5766 5770 5773 5777 5782 5786 5788 5790
5710 5715 5720 5727 5728 5732 5731 5737 5737 5738 5739 5739 5738 5737 5736 5733 5732 5730 5730 5730 5730 5728 5725 5724 5720 5718 5718 5717 5716 5716 5720 5723 5727 5730 5733 5737 5743 5746 5750 5755 5759 5763 5766 5769 5774 5778 5781 5784 5786
5707 5711 5717 5721 5725 5726 5726 5731 5733 5733 5735 5735 5734 5733 5732 5730 5728 5727 5727 5727 5725 5725 5723 5721 5719 5717 5716 5713 5714 5715 5716 5719 5722 5726 5730 5734 5738 5744 5748 5752 5754 5759 5762 5766 5769 5772 5776 5779 5782
5704 5709 5713 5717 5722 5721 5722 5725 5728 5729 5730 5732 5731 5730 5728 5727 5724 5724 5723 5723 5723 5722 5721 5718 5716 5716 5714 5714 5715 5714 5713 5712 5715 5721 5726 5729 5733 5741 5743 5748 5750 5754 5758 5760 5763 5768 5771 5775 5778
5695 5700 5707 5715 5718 5718 5717 5720 5723 5725 5727 5727 5728 5728 5726 5723 5721 5722 5720 5720 5721 5720 5719 5717 5715 5714 5711 5711 5712 5708 5707 5705 5710 5718 5724 5725 5729 5733 5738 5742 5743 5747 5752 5755 5757 5762 5765 5769 5772
5687 5694 5698 5703 5710 5712 5712 5715 5717 5719 5723 5723 5723 5723 5724 5720 5718 5719 5718 5718 5718 5718 5717 5716 5714 5713 5711 5708 5709 5709 5706 5705 5708 5713 5718 5723 5725 5729 5733 5737 5738 5742 5745 5746 5752 5758 5760 5763 5766
5680 5686 5695 5697 5703 5706 5706 5710 5713 5715 5717 5719 5720 5721 5720 5718 5715 5717 5716 5715 5716 5716 5715 5714 5712 5712 5710 5707 5705 5706 5707 5706 5708 5710 5713 5718 5721 5726 5729 5731 5733 5736 5738 5744 5751 5754 5756 5759 5761
5675 5685 5689 5692 5694 5698 5702 5704 5707 5711 5713 5715 5716 5717 5717 5716 5713 5714 5714 5713 5714 5714 5714 5714 5712 5711 5710 5708 5706 5705 5706 5707 5709 5709 5711 5714 5717 5722 5726 5729 5731 5732 5735 5742 5747 5750 5751 5753 5754
5671 5678 5682 5685 5686 5692 5694 5698 5703 5706 5709 5710 5710 5712 5713 5712 5711 5709 5711 5711 5711 5712 5711 5712 5712 5710 5709 5709 5709 5708 5707 5708 5708 5709 5711 5713 5716 5721 5723 5725 5727 5731 5734 5739 5743 5745 5745 5747 5749
5662 5670 5673 5676 5678 5680 5690 5692 5695 5701 5706 5708 5710 5708 5708 5707 5708 5706 5708 5708 5709 5709 5710 5709 5710 5710 5709 5708 5708 5708 5708 5709 5709 5709 5710 5712 5715 5718 5720 5722 5724 5727 5730 5734 5738 5740 5741 5743 5744
5654 5661 5665 5669 5670 5675 5688 5687 5691 5697 5699 5701 5702 5703 5705 5703 5704 5704 5703 5705 5706 5708 5707 5708 5707 5708 5708 5707 5707 5707 5707 5707 5707 5708 5710 5711 5713 5715 5718 5719 5721 5724 5726 5729 5733 5734 5737 5738 5737
5647 5653 5659 5661 5669 5675 5683 5679 5687 5692 5693 5695 5697 5700 5699 5700 5700 5700 5700 5701 5702 5704 5705 5705 5706 5706 5706 5707 5707 5707 5707 5706 5707 5709 5709 5711 5711 5712 5715 5717 5719 5721 5723 5725 5727 5730 5732 5732 5733
5641 5645 5655 5662 5663 5667 5674 5678 5683 5686 5686 5690 5693 5694 5694 5696 5697 5697 5696 5697 5697 5699 5701 5703 5704 5704 5704 5705 5706 5706 5706 5707 5707 5707 5708 5709 5710 5710 5711 5713 5715 5717 5719 5720 5723 5725 5726 5726 5726
5633 5644 5644 5649 5654 5660 5668 5671 5677 5681 5682 5683 5685 5689 5690 5687 5691 5692 5692 5693 5693 5695 5697 5699 5700 5701 5702 5702 5702 5704 5706 5706 5706 5706 5707 5707 5708 5709 5710 5710 5711 5712 5713 5715 5718 5719 5719 5719 5720
5626 5630 5636 5643 5647 5655 5660 5666 5667 5668 5672 5675 5678 5679 5681 5683 5687 5687 5686 5687 5689 5690 5692 5694 5696 5697 5698 5698 5699 5700 5701 5703 5704 5704 5704 5705 5705 5707 5707 5708 5708 5709 5710 5711 5713 5714 5713 5713 5713
5619 5624 5630 5635 5642 5646 5654 5660 5658 5665 5666 5671 5673 5674 5674 5678 5679 5679 5683 5683 5682 5685 5686 5689 5690 5693 5693 5694 5694 5695 5696 5698 5699 5699 5700 5701 5702 5704 5704 5704 5705 5706 5707 5707 5707 5707 5706 5706 5706